Коношаново

Россия / Иркутская область     55°21′14″N   105°28′35″E
темп.,
°C
ветер,
м/с
пор.,
м/с
влажн.,
%
обл.,
%
осадки,
мм/ч
давл.,
гПа
погр.,
м
7 мая, пт
пт723:00+1з2699100 1.2 1008353
02:000сз2597100 2.2 1010360
05:000сз259791 0.1 1012377
08:00+2с357980 0.2 1014867
11:00+3с356532 0.0 10151023
14:00+6ссв445136 0.0 10141450
17:00+6ссв435453 0.0 10141252
20:00+2св22765 0.0 101553
8 мая, сб
сб823:00−2в11936 0.0 101611
02:00−3вюв11955 0.0 101611
05:00−3вюв1195100 0.0 101511
08:00+3юв1268100 0.0 1014334
11:00+8зюз3348100 0.0 10121334
14:00+8з6565100 0.1 10111129
17:00+4з358887 0.2 1012644
20:00+3с128116 0.3 101352
9 мая, вс
вс923:000св119548 0.0 101410
02:00+2вюв1192100 0.3 101355
05:00+2юз0096100 0.8 101229
08:00+4юз128580 0.8 1011431
11:00+8юз125988 0.1 10091262
14:00+9юз2356100 0.1 10081341
17:00+4з1695100 2.1 1010674
20:00+4ссв1297100 2.5 1011293
10 мая, пн
пн1023:00+3сз1196100 0.1 101113
02:00+2сз2296100 0.1 101259
05:00+1сз1397100 0.5 1013135
08:00+2ссз2399100 2.3 1014165
11:00+2сз2493100 1.1 1015422
14:00+4ссз2482100 1.3 1015786
17:00+4ссз2486100 0.1 1015607
20:00+3ссз2592100 0.1 1016398
11 мая, вт
вт1123:00+1сз119837 0.0 101612
02:00−1ссз119898 0.0 101612
05:00−1с1199100 0.0 101642
08:00+2ссв1293100 0.0 1015269
11:00+7св2373100 0.0 1014572
14:00+11св2249100 0.0 10111704
17:00+10св334961 0.0 10101453
20:00+6ссв48745 0.0 1012478